| time (UTC) | temp F | wind direction | speed MPH | gust MPH | rain 1hr in | rain 24hr in | rain mn in | humidity % | barometer mb |
| 20260831223027 | 52 | 2 | 13.0 | 31.0 | 0.00 | 0.00 | 0.00 | 82 | 1022.0 |
| 20260831222516 | 51 | 359 | 18.0 | 31.0 | 0.00 | 0.00 | 0.00 | 82 | 1022.0 |
| 20260831222015 | 51 | 339 | 17.0 | 26.0 | 0.00 | 0.00 | 0.00 | 83 | 1021.9 |
| 20260831221523 | 51 | 14 | 17.0 | 27.0 | 0.00 | 0.00 | 0.00 | 83 | 1022.0 |
| 20260831221019 | 51 | 2 | 17.0 | 27.0 | 0.00 | 0.00 | 0.00 | 84 | 1021.9 |
| 20260831220514 | 51 | 8 | 14.0 | 27.0 | 0.00 | 0.00 | 0.00 | 84 | 1022.0 |
| 20260831220017 | 51 | 320 | 16.0 | 26.0 | 0.00 | 0.00 | 0.00 | 84 | 1022.2 |
| 20260831215518 | 51 | 5 | 12.0 | 26.0 | 0.00 | 0.00 | 0.00 | 85 | 1022.2 |
| 20260831215017 | 51 | 352 | 14.0 | 25.0 | 0.00 | 0.00 | 0.00 | 85 | 1022.2 |
| 20260831214524 | 50 | 341 | 16.0 | 25.0 | 0.00 | 0.00 | 0.00 | 85 | 1022.0 |
| 20260831214011 | 50 | 354 | 14.0 | 24.0 | 0.00 | 0.00 | 0.00 | 85 | 1022.0 |
| 20260831213511 | 50 | 355 | 12.0 | 25.0 | 0.00 | 0.00 | 0.00 | 85 | 1022.1 |
| 20260831213028 | 50 | 336 | 15.0 | 25.0 | 0.00 | 0.00 | 0.00 | 86 | 1022.0 |
| 20260831212517 | 50 | 1 | 14.0 | 28.0 | 0.00 | 0.00 | 0.00 | 86 | 1021.9 |
| 20260831212015 | 50 | 3 | 18.0 | 28.0 | 0.00 | 0.00 | 0.00 | 86 | 1021.9 |
| 20260831211531 | 50 | 350 | 15.0 | 34.0 | 0.00 | 0.00 | 0.00 | 86 | 1021.7 |
| 20260831211015 | 50 | 350 | 17.0 | 34.0 | 0.00 | 0.00 | 0.00 | 86 | 1021.7 |
| 20260831210518 | 50 | 4 | 20.0 | 32.0 | 0.00 | 0.00 | 0.00 | 86 | 1021.7 |
| 20260831210030 | 50 | 26 | 15.0 | 29.0 | 0.00 | 0.00 | 0.00 | 86 | 1021.6 |
| 20260831205514 | 50 | 17 | 18.0 | 29.0 | 0.00 | 0.00 | 0.00 | 86 | 1021.7 |
| 20260831205019 | 50 | 36 | 16.0 | 30.0 | 0.00 | 0.00 | 0.00 | 86 | 1021.7 |
| 20260831204530 | 50 | 330 | 18.0 | 30.0 | 0.00 | 0.00 | 0.00 | 86 | 1021.7 |
| 20260831204018 | 51 | 344 | 15.0 | 24.0 | 0.00 | 0.00 | 0.00 | 86 | 1021.7 |
| 20260831203519 | 51 | 343 | 15.0 | 31.0 | 0.00 | 0.00 | 0.00 | 86 | 1021.7 |
| 20260831203025 | 51 | 351 | 19.0 | 31.0 | 0.00 | 0.00 | 0.00 | 86 | 1021.9 |
| 20260831202511 | 51 | 315 | 15.0 | 28.0 | 0.00 | 0.00 | 0.00 | 86 | 1021.9 |
| 20260831202003 | 51 | 16 | 17.0 | 28.0 | 0.00 | 0.00 | 0.00 | 86 | 1022.0 |
| 20260831201507 | 51 | 4 | 12.0 | 27.0 | 0.00 | 0.00 | 0.00 | 85 | 1021.8 |
| 20260831201003 | 51 | 327 | 15.0 | 27.0 | 0.00 | 0.00 | 0.00 | 85 | 1021.7 |
| 20260831200503 | 51 | 16 | 15.0 | 28.0 | 0.00 | 0.00 | 0.00 | 85 | 1021.5 |
| 20260831200015 | 51 | 353 | 15.0 | 28.0 | 0.00 | 0.00 | 0.00 | 85 | 1021.7 |
| 20260831195508 | 51 | 351 | 12.0 | 25.0 | 0.00 | 0.00 | 0.00 | 85 | 1021.8 |
| 20260831195010 | 51 | 8 | 12.0 | 26.0 | 0.00 | 0.00 | 0.00 | 85 | 1021.9 |
| 20260831194511 | 51 | 341 | 14.0 | 28.0 | 0.00 | 0.00 | 0.00 | 85 | 1021.8 |
| 20260831194004 | 51 | 345 | 14.0 | 28.0 | 0.00 | 0.00 | 0.00 | 85 | 1021.7 |
| 20260831193510 | 51 | 349 | 13.0 | 21.0 | 0.00 | 0.00 | 0.00 | 84 | 1021.7 |
| 20260831193024 | 51 | 340 | 12.0 | 24.0 | 0.00 | 0.00 | 0.00 | 84 | 1021.7 |
| 20260831192512 | 51 | 349 | 16.0 | 25.0 | 0.00 | 0.00 | 0.00 | 84 | 1021.7 |
| 20260831192020 | 51 | 4 | 15.0 | 25.0 | 0.00 | 0.00 | 0.00 | 84 | 1021.6 |
| 20260831191510 | 51 | 326 | 14.0 | 25.0 | 0.00 | 0.00 | 0.00 | 84 | 1021.5 |
| 20260831191016 | 51 | 328 | 12.0 | 20.0 | 0.00 | 0.00 | 0.00 | 85 | 1021.6 |
| 20260831190509 | 51 | 8 | 11.0 | 18.0 | 0.00 | 0.00 | 0.00 | 85 | 1021.7 |
| 20260831190008 | 51 | 357 | 11.0 | 19.0 | 0.00 | 0.00 | 0.00 | 85 | 1021.8 |
| 20260831185506 | 51 | 14 | 10.0 | 22.0 | 0.00 | 0.00 | 0.00 | 86 | 1022.0 |
| 20260831185006 | 51 | 337 | 11.0 | 23.0 | 0.00 | 0.00 | 0.00 | 85 | 1022.0 |
| 20260831184510 | 51 | 353 | 6.0 | 23.0 | 0.00 | 0.00 | 0.00 | 86 | 1021.9 |
| 20260831184008 | 51 | 354 | 9.0 | 19.0 | 0.00 | 0.00 | 0.00 | 86 | 1022.1 |
| 20260831183511 | 51 | 358 | 7.0 | 16.0 | 0.00 | 0.00 | 0.00 | 86 | 1022.1 |
| 20260831183018 | 51 | 346 | 6.0 | 16.0 | 0.00 | 0.00 | 0.00 | 86 | 1022.3 |
| 20260831182510 | 51 | 49 | 7.0 | 17.0 | 0.00 | 0.00 | 0.00 | 86 | 1022.4 |
| 20260831182006 | 51 | 335 | 7.0 | 17.0 | 0.00 | 0.00 | 0.00 | 86 | 1022.6 |
| 20260831181526 | 51 | 4 | 6.0 | 11.0 | 0.00 | 0.00 | 0.00 | 86 | 1022.6 |
| 20260831181010 | 50 | 45 | 3.0 | 9.0 | 0.00 | 0.00 | 0.00 | 85 | 1022.7 |
| 20260831180516 | 50 | 11 | 3.0 | 10.0 | 0.00 | 0.00 | 0.00 | 86 | 1022.6 |
| 20260831180038 | 51 | 338 | 6.0 | 10.0 | 0.00 | 0.00 | 0.00 | 85 | 1022.7 |
| 20260831175508 | 51 | 334 | 4.0 | 12.0 | 0.00 | 0.00 | 0.00 | 85 | 1022.7 |
| 20260831175014 | 51 | 336 | 6.0 | 11.0 | 0.00 | 0.00 | 0.00 | 85 | 1022.7 |
| 20260831174523 | 51 | 342 | 6.0 | 10.0 | 0.00 | 0.00 | 0.00 | 85 | 1022.5 |
| 20260831174022 | 51 | 342 | 7.0 | 13.0 | 0.00 | 0.00 | 0.00 | 85 | 1022.6 |
| 20260831173506 | 52 | 355 | 7.0 | 13.0 | 0.00 | 0.00 | 0.00 | 85 | 1022.6 |
| 20260831173015 | 52 | 354 | 6.0 | 13.0 | 0.00 | 0.00 | 0.00 | 85 | 1022.7 |
| 20260831172510 | 52 | 348 | 7.0 | 14.0 | 0.00 | 0.00 | 0.00 | 85 | 1022.8 |
| 20260831172014 | 52 | 7 | 6.0 | 15.0 | 0.00 | 0.00 | 0.00 | 85 | 1022.8 |
| 20260831171514 | 52 | 36 | 7.0 | 16.0 | 0.00 | 0.00 | 0.00 | 85 | 1022.9 |
| 20260831171010 | 52 | 337 | 8.0 | 16.0 | 0.00 | 0.00 | 0.00 | 84 | 1022.9 |
| 20260831170515 | 52 | 345 | 5.0 | 12.0 | 0.00 | 0.00 | 0.00 | 84 | 1023.0 |
| 20260831170028 | 52 | 31 | 4.0 | 17.0 | 0.00 | 0.00 | 0.00 | 84 | 1023.0 |
| 20260831165516 | 52 | 60 | 5.0 | 17.0 | 0.00 | 0.00 | 0.00 | 84 | 1023.2 |
| 20260831165010 | 52 | 25 | 5.0 | 12.0 | 0.00 | 0.00 | 0.00 | 84 | 1023.3 |
| 20260831164545 | 52 | 14 | 5.0 | 11.0 | 0.00 | 0.00 | 0.00 | 84 | 1023.4 |
| 20260831164013 | 52 | 359 | 5.0 | 11.0 | 0.00 | 0.00 | 0.00 | 84 | 1023.5 |
| 20260831163508 | 53 | 331 | 3.0 | 10.0 | 0.00 | 0.00 | 0.00 | 84 | 1023.6 |
| 20260831163026 | 52 | 120 | 3.0 | 10.0 | 0.00 | 0.00 | 0.00 | 84 | 1023.6 |
| 20260831162515 | 52 | 39 | 3.0 | 10.0 | 0.00 | 0.00 | 0.00 | 84 | 1023.6 |
| 20260831162006 | 53 | 58 | 2.0 | 9.0 | 0.00 | 0.00 | 0.00 | 84 | 1023.8 |
| 20260831161517 | 53 | 71 | 2.0 | 9.0 | 0.00 | 0.00 | 0.00 | 84 | 1023.9 |
| 20260831161010 | 53 | 2 | 2.0 | 9.0 | 0.00 | 0.00 | 0.00 | 84 | 1023.9 |
| 20260831160511 | 52 | 27 | 1.0 | 7.0 | 0.00 | 0.00 | 0.00 | 84 | 1024.0 |
| 20260831160024 | 52 | 27 | 1.0 | 7.0 | 0.00 | 0.00 | 0.00 | 84 | 1024.2 |
| 20260831155511 | 52 | 10 | 1.0 | 6.0 | 0.00 | 0.00 | 0.00 | 83 | 1024.3 |
| 20260831155016 | 53 | 168 | 0.0 | 6.0 | 0.00 | 0.00 | 0.00 | 83 | 1024.4 |
| 20260831154551 | 53 | 87 | 2.0 | 5.0 | 0.00 | 0.00 | 0.00 | 83 | 1024.6 |
| 20260831154020 | 53 | 33 | 2.0 | 7.0 | 0.00 | 0.00 | 0.00 | 83 | 1024.6 |
| 20260831153517 | 53 | 38 | 3.0 | 7.0 | 0.00 | 0.00 | 0.00 | 83 | 1024.6 |
| 20260831153018 | 53 | 69 | 2.0 | 13.0 | 0.00 | 0.00 | 0.00 | 83 | 1024.5 |
| 20260831152516 | 53 | 47 | 2.0 | 13.0 | 0.00 | 0.00 | 0.00 | 83 | 1024.5 |
| 20260831152012 | 53 | 16 | 3.0 | 11.0 | 0.00 | 0.00 | 0.00 | 83 | 1024.5 |
| 20260831151534 | 53 | 47 | 4.0 | 11.0 | 0.00 | 0.00 | 0.00 | 83 | 1024.5 |
| 20260831151018 | 53 | 351 | 3.0 | 10.0 | 0.00 | 0.00 | 0.00 | 83 | 1024.6 |
| 20260831150515 | 53 | 358 | 4.0 | 12.0 | 0.00 | 0.00 | 0.00 | 83 | 1024.6 |
| 20260831150018 | 53 | 77 | 5.0 | 12.0 | 0.00 | 0.00 | 0.00 | 83 | 1024.7 |
| 20260831145516 | 53 | 22 | 5.0 | 11.0 | 0.00 | 0.00 | 0.00 | 83 | 1024.8 |
| 20260831145013 | 53 | 17 | 4.0 | 12.0 | 0.00 | 0.00 | 0.00 | 83 | 1024.9 |
| 20260831144527 | 53 | 326 | 5.0 | 12.0 | 0.00 | 0.00 | 0.00 | 83 | 1025.0 |
| 20260831144016 | 53 | 36 | 4.0 | 11.0 | 0.00 | 0.00 | 0.00 | 82 | 1025.0 |
| 20260831143515 | 53 | 39 | 4.0 | 12.0 | 0.00 | 0.00 | 0.00 | 82 | 1025.1 |
| 20260831143033 | 53 | 39 | 3.0 | 13.0 | 0.00 | 0.00 | 0.00 | 82 | 1025.2 |
| 20260831142504 | 54 | 8 | 4.0 | 13.0 | 0.00 | 0.00 | 0.00 | 82 | 1025.3 |
| 20260831142003 | 54 | 360 | 5.0 | 11.0 | 0.00 | 0.00 | 0.00 | 82 | 1025.4 |
| 20260831141509 | 54 | 35 | 6.0 | 13.0 | 0.00 | 0.00 | 0.00 | 82 | 1025.4 |
| 20260831141004 | 54 | 330 | 4.0 | 13.0 | 0.00 | 0.00 | 0.00 | 82 | 1025.5 |
| 20260831140505 | 53 | 62 | 4.0 | 11.0 | 0.00 | 0.00 | 0.00 | 82 | 1025.6 |
| 20260831140007 | 53 | 346 | 4.0 | 11.0 | 0.00 | 0.00 | 0.00 | 82 | 1025.6 |
| 20260831135503 | 53 | 15 | 4.0 | 10.0 | 0.00 | 0.00 | 0.00 | 81 | 1025.7 |
| 20260831135003 | 53 | 29 | 4.0 | 10.0 | 0.00 | 0.00 | 0.00 | 81 | 1025.8 |
| 20260831134504 | 53 | 344 | 2.0 | 12.0 | 0.00 | 0.00 | 0.00 | 81 | 1026.0 |
| 20260831134000 | 53 | 45 | 3.0 | 12.0 | 0.00 | 0.00 | 0.00 | 81 | 1026.1 |
| 20260831133507 | 53 | 312 | 4.0 | 11.0 | 0.00 | 0.00 | 0.00 | 80 | 1026.2 |
| 20260831133005 | 53 | 15 | 3.0 | 11.0 | 0.00 | 0.00 | 0.00 | 80 | 1026.2 |
| 20260831132503 | 53 | 17 | 2.0 | 9.0 | 0.00 | 0.00 | 0.00 | 80 | 1026.3 |
| 20260831132004 | 53 | 55 | 3.0 | 9.0 | 0.00 | 0.00 | 0.00 | 79 | 1026.4 |
| 20260831131504 | 53 | 8 | 3.0 | 10.0 | 0.00 | 0.00 | 0.00 | 79 | 1026.4 |
| 20260831131004 | 53 | 341 | 5.0 | 11.0 | 0.00 | 0.00 | 0.00 | 79 | 1026.5 |
| 20260831130504 | 53 | 347 | 4.0 | 11.0 | 0.00 | 0.00 | 0.00 | 80 | 1026.5 |
| 20260831130010 | 53 | 49 | 3.0 | 9.0 | 0.00 | 0.00 | 0.00 | 80 | 1026.6 |
| 20260831125506 | 53 | 14 | 4.0 | 10.0 | 0.00 | 0.00 | 0.00 | 80 | 1026.7 |
| 20260831125006 | 52 | 45 | 6.0 | 10.0 | 0.00 | 0.00 | 0.00 | 81 | 1026.8 |
| 20260831124517 | 49 | 333 | 4.0 | 8.0 | 0.00 | 0.00 | 0.00 | 78 | 1027.0 |
| 20260831124003 | 49 | 344 | 2.0 | 8.0 | 0.00 | 0.00 | 0.00 | 76 | 1027.0 |
| 20260831123509 | 49 | 320 | 0.0 | 4.0 | 0.00 | 0.00 | 0.00 | 74 | 1027.0 |
| 20260831123006 | 50 | 320 | 2.0 | 4.0 | 0.00 | 0.00 | 0.00 | 74 | 1027.1 |
| 20260831122503 | 51 | 319 | 2.0 | 4.0 | 0.00 | 0.00 | 0.00 | 73 | 1027.1 |
| 20260831122005 | 51 | 343 | 2.0 | 4.0 | 0.00 | 0.00 | 0.00 | 72 | 1027.2 |
| 20260831121505 | 52 | 348 | 2.0 | 4.0 | 0.00 | 0.00 | 0.00 | 70 | 1027.3 |
| 20260831121006 | 53 | 7 | 1.0 | 4.0 | 0.00 | 0.00 | 0.00 | 70 | 1027.2 |
| 20260831120505 | 53 | 29 | 1.0 | 4.0 | 0.00 | 0.00 | 0.00 | 69 | 1027.3 |
| 20260831120039 | 53 | 71 | 1.0 | 5.0 | 0.00 | 0.00 | 0.00 | 69 | 1027.2 |
| 20260831115507 | 53 | 357 | 2.0 | 5.0 | 0.00 | 0.00 | 0.00 | 69 | 1027.3 |
| 20260831115004 | 54 | 15 | 1.0 | 5.0 | 0.00 | 0.00 | 0.00 | 68 | 1027.3 |
| 20260831114526 | 54 | 38 | 1.0 | 5.0 | 0.00 | 0.00 | 0.00 | 68 | 1027.4 |
| 20260831114006 | 54 | 22 | 1.0 | 6.0 | 0.00 | 0.00 | 0.00 | 67 | 1027.5 |
| 20260831113505 | 54 | 54 | 1.0 | 6.0 | 0.00 | 0.00 | 0.00 | 67 | 1027.5 |
| 20260831113019 | 54 | 66 | 1.0 | 5.0 | 0.00 | 0.00 | 0.00 | 67 | 1027.5 |
| 20260831112506 | 54 | 8 | 1.0 | 5.0 | 0.00 | 0.00 | 0.00 | 67 | 1027.5 |
| 20260831112014 | 54 | 37 | 2.0 | 5.0 | 0.00 | 0.00 | 0.00 | 67 | 1027.6 |
| 20260831111505 | 54 | 65 | 2.0 | 5.0 | 0.00 | 0.00 | 0.00 | 67 | 1027.6 |
| 20260831111006 | 54 | 353 | 1.0 | 4.0 | 0.00 | 0.00 | 0.00 | 67 | 1027.6 |
| 20260831110509 | 54 | 37 | 1.0 | 4.0 | 0.00 | 0.00 | 0.00 | 66 | 1027.6 |
| 20260831110004 | 54 | 22 | 1.0 | 4.0 | 0.00 | 0.00 | 0.00 | 66 | 1027.5 |
| 20260831105504 | 55 | 54 | 0.0 | 3.0 | 0.00 | 0.00 | 0.00 | 66 | 1027.5 |
| 20260831105011 | 55 | 51 | 0.0 | 3.0 | 0.00 | 0.00 | 0.00 | 65 | 1027.6 |
| 20260831104509 | 55 | 62 | 1.0 | 4.0 | 0.00 | 0.00 | 0.00 | 65 | 1027.5 |
| 20260831104007 | 56 | 54 | 1.0 | 5.0 | 0.00 | 0.00 | 0.00 | 65 | 1027.6 |
| 20260831103514 | 56 | 47 | 0.0 | 5.0 | 0.00 | 0.00 | 0.00 | 65 | 1027.6 |
| 20260831103004 | 56 | 62 | 2.0 | 4.0 | 0.00 | 0.00 | 0.00 | 65 | 1027.5 |
| 20260831102512 | 56 | 28 | 0.0 | 5.0 | 0.00 | 0.00 | 0.00 | 65 | 1027.4 |
| 20260831102009 | 56 | 38 | 2.0 | 5.0 | 0.00 | 0.00 | 0.00 | 65 | 1027.5 |
| 20260831101533 | 56 | 30 | 2.0 | 5.0 | 0.00 | 0.00 | 0.00 | 66 | 1027.6 |
| 20260831101012 | 56 | 47 | 2.0 | 5.0 | 0.00 | 0.00 | 0.00 | 66 | 1027.6 |
| 20260831100504 | 56 | 31 | 2.0 | 5.0 | 0.00 | 0.00 | 0.00 | 66 | 1027.6 |
| 20260831100025 | 56 | 39 | 0.0 | 4.0 | 0.00 | 0.00 | 0.00 | 66 | 1027.6 |
| 20260831095504 | 56 | 19 | 1.0 | 4.0 | 0.00 | 0.00 | 0.00 | 66 | 1027.7 |
| 20260831095003 | 56 | 46 | 1.0 | 4.0 | 0.00 | 0.00 | 0.00 | 66 | 1027.7 |
| 20260831094509 | 56 | 43 | 1.0 | 4.0 | 0.00 | 0.00 | 0.00 | 66 | 1027.8 |
| 20260831094007 | 56 | 50 | 1.0 | 5.0 | 0.00 | 0.00 | 0.00 | 66 | 1027.8 |
| 20260831093519 | 56 | 39 | 3.0 | 5.0 | 0.00 | 0.00 | 0.00 | 66 | 1027.8 |
| 20260831093027 | 56 | 20 | 1.0 | 5.0 | 0.00 | 0.00 | 0.00 | 66 | 1027.9 |
| 20260831092507 | 56 | 33 | 2.0 | 4.0 | 0.00 | 0.00 | 0.00 | 66 | 1028.0 |
| 20260831092011 | 57 | 23 | 0.0 | 6.0 | 0.00 | 0.00 | 0.00 | 67 | 1027.8 |
| 20260831091515 | 57 | 37 | 0.0 | 6.0 | 0.00 | 0.00 | 0.00 | 66 | 1028.0 |
| 20260831091004 | 57 | 11 | 1.0 | 4.0 | 0.00 | 0.00 | 0.00 | 66 | 1028.0 |
| 20260831090515 | 57 | 55 | 0.0 | 3.0 | 0.00 | 0.00 | 0.00 | 66 | 1028.0 |
| 20260831090012 | 57 | 58 | 0.0 | 3.0 | 0.00 | 0.00 | 0.00 | 66 | 1028.0 |
| 20260831085516 | 57 | 47 | 0.0 | 3.0 | 0.00 | 0.00 | 0.00 | 66 | 1028.0 |
| 20260831085012 | 57 | 56 | 1.0 | 3.0 | 0.00 | 0.00 | 0.00 | 67 | 1027.9 |
| 20260831084508 | 57 | 61 | 0.0 | 3.0 | 0.00 | 0.00 | 0.00 | 67 | 1028.0 |
| 20260831084003 | 58 | 61 | 1.0 | 3.0 | 0.00 | 0.00 | 0.00 | 66 | 1028.1 |
| 20260831083503 | 58 | 61 | 1.0 | 3.0 | 0.00 | 0.00 | 0.00 | 66 | 1028.1 |
| 20260831083010 | 58 | 52 | 0.0 | 2.0 | 0.00 | 0.00 | 0.00 | 65 | 1028.1 |
| 20260831082508 | 58 | 54 | 0.0 | 2.0 | 0.00 | 0.00 | 0.00 | 65 | 1028.1 |
| 20260831082013 | 58 | 54 | 0.0 | 4.0 | 0.00 | 0.00 | 0.00 | 65 | 1028.1 |
| 20260831081515 | 59 | 54 | 0.0 | 4.0 | 0.00 | 0.00 | 0.00 | 65 | 1028.1 |
| 20260831081013 | 59 | 77 | 0.0 | 2.0 | 0.00 | 0.00 | 0.00 | 65 | 1028.1 |
| 20260831080504 | 59 | 77 | 0.0 | 1.0 | 0.00 | 0.00 | 0.00 | 64 | 1028.1 |
| 20260831080029 | 60 | 77 | 0.0 | 3.0 | 0.00 | 0.00 | 0.00 | 64 | 1028.1 |
| 20260831075510 | 60 | 77 | 1.0 | 4.0 | 0.00 | 0.00 | 0.00 | 63 | 1028.1 |
| 20260831075013 | 61 | 88 | 1.0 | 4.0 | 0.00 | 0.00 | 0.00 | 63 | 1028.1 |
| 20260831074530 | 61 | 95 | 2.0 | 6.0 | 0.00 | 0.00 | 0.00 | 63 | 1028.0 |
| 20260831074010 | 61 | 91 | 2.0 | 6.0 | 0.00 | 0.00 | 0.00 | 62 | 1028.0 |
| 20260831073515 | 61 | 95 | 3.0 | 6.0 | 0.00 | 0.00 | 0.00 | 62 | 1028.0 |
| 20260831073018 | 61 | 105 | 3.0 | 6.0 | 0.00 | 0.00 | 0.00 | 61 | 1028.0 |
| 20260831072504 | 62 | 102 | 3.0 | 5.0 | 0.00 | 0.00 | 0.00 | 61 | 1028.0 |
| 20260831072010 | 62 | 115 | 2.0 | 4.0 | 0.00 | 0.00 | 0.00 | 61 | 1028.0 |
| 20260831071526 | 62 | 115 | 2.0 | 6.0 | 0.00 | 0.00 | 0.00 | 60 | 1028.0 |
| 20260831071016 | 62 | 104 | 3.0 | 6.0 | 0.00 | 0.00 | 0.00 | 59 | 1028.0 |
| 20260831070511 | 62 | 104 | 2.0 | 4.0 | 0.00 | 0.00 | 0.00 | 62 | 1028.1 |
| 20260831070016 | 62 | 156 | 2.0 | 5.0 | 0.00 | 0.00 | 0.00 | 63 | 1028.2 |
| 20260831065521 | 63 | 185 | 3.0 | 5.0 | 0.00 | 0.00 | 0.00 | 64 | 1028.2 |
| 20260831065013 | 63 | 200 | 2.0 | 4.0 | 0.00 | 0.00 | 0.00 | 62 | 1028.2 |
| 20260831064528 | 63 | 214 | 1.0 | 3.0 | 0.00 | 0.00 | 0.00 | 62 | 1028.3 |
| 20260831064016 | 64 | 214 | 1.0 | 3.0 | 0.00 | 0.00 | 0.00 | 63 | 1028.2 |
| 20260831063511 | 64 | 214 | 1.0 | 4.0 | 0.00 | 0.00 | 0.00 | 61 | 1028.3 |
| 20260831063032 | 64 | 232 | 0.0 | 4.0 | 0.00 | 0.00 | 0.00 | 60 | 1028.3 |
| 20260831062513 | 65 | 231 | 2.0 | 4.0 | 0.00 | 0.00 | 0.00 | 60 | 1028.4 |
| 20260831062011 | 65 | 243 | 1.0 | 4.0 | 0.00 | 0.00 | 0.00 | 59 | 1028.5 |
| 20260831061535 | 65 | 101 | 0.0 | 0.0 | 0.00 | 0.00 | 0.00 | 61 | 1028.5 |
| 20260831061017 | 64 | 101 | 0.0 | 3.0 | 0.00 | 0.00 | 0.00 | 63 | 1028.5 |
| 20260831060511 | 64 | 101 | 0.0 | 4.0 | 0.00 | 0.00 | 0.00 | 61 | 1028.5 |
| 20260831060021 | 63 | 101 | 1.0 | 5.0 | 0.00 | 0.00 | 0.00 | 61 | 1028.6 |
| 20260831055511 | 63 | 108 | 2.0 | 5.0 | 0.00 | 0.00 | 0.00 | 62 | 1028.5 |
| 20260831055011 | 63 | 114 | 3.0 | 7.0 | 0.00 | 0.00 | 0.00 | 63 | 1028.5 |
| 20260831054524 | 63 | 120 | 3.0 | 7.0 | 0.00 | 0.00 | 0.00 | 61 | 1028.5 |
| 20260831054013 | 64 | 119 | 3.0 | 5.0 | 0.00 | 0.00 | 0.00 | 61 | 1028.5 |
| 20260831053515 | 63 | 159 | 2.0 | 5.0 | 0.00 | 0.00 | 0.00 | 60 | 1028.5 |
| 20260831053024 | 63 | 141 | 3.0 | 6.0 | 0.00 | 0.00 | 0.00 | 58 | 1028.5 |
| 20260831052502 | 63 | 96 | 2.0 | 6.0 | 0.00 | 0.00 | 0.00 | 58 | 1028.6 |
| 20260831052006 | 63 | 156 | 2.0 | 5.0 | 0.00 | 0.00 | 0.00 | 60 | 1028.6 |
| 20260831051516 | 63 | 135 | 2.0 | 5.0 | 0.00 | 0.00 | 0.00 | 61 | 1028.7 |
| 20260831051008 | 63 | 135 | 3.0 | 7.0 | 0.00 | 0.00 | 0.00 | 61 | 1028.8 |
| 20260831050504 | 63 | 151 | 4.0 | 7.0 | 0.00 | 0.00 | 0.00 | 61 | 1028.9 |
| 20260831050011 | 63 | 204 | 1.0 | 5.0 | 0.00 | 0.00 | 0.00 | 60 | 1029.0 |
| 20260831045504 | 62 | 180 | 3.0 | 5.0 | 0.00 | 0.00 | 0.00 | 61 | 1029.1 |
| 20260831045012 | 62 | 123 | 3.0 | 5.0 | 0.00 | 0.00 | 0.00 | 61 | 1029.2 |
| 20260831044514 | 62 | 192 | 2.0 | 5.0 | 0.00 | 0.00 | 0.00 | 61 | 1029.2 |
| 20260831044004 | 62 | 180 | 3.0 | 5.0 | 0.00 | 0.00 | 0.00 | 61 | 1029.2 |
| 20260831043512 | 62 | 180 | 3.0 | 5.0 | 0.00 | 0.00 | 0.00 | 61 | 1029.4 |
| 20260831043009 | 62 | 219 | 3.0 | 5.0 | 0.00 | 0.00 | 0.00 | 63 | 1029.5 |
| 20260831042503 | 62 | 219 | 4.0 | 5.0 | 0.00 | 0.00 | 0.00 | 63 | 1029.5 |
| 20260831042003 | 61 | 235 | 3.0 | 5.0 | 0.00 | 0.00 | 0.00 | 63 | 1029.5 |
| 20260831041508 | 61 | 215 | 2.0 | 5.0 | 0.00 | 0.00 | 0.00 | 63 | 1029.6 |
| 20260831041006 | 61 | 246 | 3.0 | 8.0 | 0.00 | 0.00 | 0.00 | 65 | 1029.6 |
| 20260831040508 | 61 | 190 | 3.0 | 8.0 | 0.00 | 0.00 | 0.00 | 63 | 1029.7 |
| 20260831040006 | 61 | 208 | 1.0 | 8.0 | 0.00 | 0.00 | 0.00 | 63 | 1029.8 |
| 20260831035509 | 61 | 189 | 2.0 | 8.0 | 0.00 | 0.00 | 0.00 | 63 | 1029.8 |
| 20260831035004 | 60 | 185 | 3.0 | 8.0 | 0.00 | 0.00 | 0.00 | 64 | 1029.8 |
| 20260831034515 | 61 | 212 | 4.0 | 8.0 | 0.00 | 0.00 | 0.00 | 65 | 1029.9 |
| 20260831034009 | 60 | 200 | 4.0 | 8.0 | 0.00 | 0.00 | 0.00 | 64 | 1030.0 |
| 20260831033506 | 60 | 165 | 5.0 | 9.0 | 0.00 | 0.00 | 0.00 | 66 | 1030.1 |
| 20260831033034 | 60 | 185 | 3.0 | 9.0 | 0.00 | 0.00 | 0.00 | 67 | 1030.2 |
| 20260831032508 | 60 | 237 | 5.0 | 9.0 | 0.00 | 0.00 | 0.00 | 67 | 1030.3 |
| 20260831032006 | 60 | 213 | 3.0 | 9.0 | 0.00 | 0.00 | 0.00 | 66 | 1030.2 |
| 20260831031521 | 59 | 204 | 3.0 | 9.0 | 0.00 | 0.00 | 0.00 | 67 | 1030.2 |
| 20260831031007 | 59 | 235 | 3.0 | 7.0 | 0.00 | 0.00 | 0.00 | 65 | 1030.3 |
| 20260831030503 | 59 | 170 | 3.0 | 8.0 | 0.00 | 0.00 | 0.00 | 68 | 1030.4 |
| 20260831030004 | 59 | 198 | 3.0 | 9.0 | 0.00 | 0.00 | 0.00 | 69 | 1030.5 |
| 20260831025504 | 59 | 194 | 5.0 | 9.0 | 0.00 | 0.00 | 0.00 | 67 | 1030.6 |
| 20260831025017 | 58 | 223 | 4.0 | 9.0 | 0.00 | 0.00 | 0.00 | 69 | 1030.8 |
| 20260831024511 | 58 | 208 | 5.0 | 9.0 | 0.00 | 0.00 | 0.00 | 69 | 1030.9 |
| 20260831024004 | 58 | 197 | 6.0 | 10.0 | 0.00 | 0.00 | 0.00 | 70 | 1030.8 |
| 20260831023513 | 58 | 217 | 6.0 | 10.0 | 0.00 | 0.00 | 0.00 | 70 | 1030.8 |
| 20260831023010 | 58 | 195 | 4.0 | 9.0 | 0.00 | 0.00 | 0.00 | 70 | 1030.9 |
| 20260831022514 | 57 | 126 | 4.0 | 10.0 | 0.00 | 0.00 | 0.00 | 71 | 1031.0 |
| 20260831022011 | 57 | 202 | 4.0 | 10.0 | 0.00 | 0.00 | 0.00 | 72 | 1031.1 |
| 20260831021510 | 57 | 161 | 5.0 | 10.0 | 0.00 | 0.00 | 0.00 | 71 | 1031.3 |
| 20260831021014 | 57 | 206 | 3.0 | 9.0 | 0.00 | 0.00 | 0.00 | 72 | 1031.4 |
| 20260831020510 | 57 | 170 | 5.0 | 9.0 | 0.00 | 0.00 | 0.00 | 73 | 1031.3 |
| 20260831020031 | 56 | 216 | 5.0 | 10.0 | 0.00 | 0.00 | 0.00 | 72 | 1031.4 |
| 20260831015505 | 56 | 197 | 6.0 | 10.0 | 0.00 | 0.00 | 0.00 | 73 | 1031.4 |
| 20260831015003 | 56 | 166 | 4.0 | 8.0 | 0.00 | 0.00 | 0.00 | 75 | 1031.6 |
| 20260831014530 | 56 | 172 | 5.0 | 8.0 | 0.00 | 0.00 | 0.00 | 74 | 1031.7 |
| 20260831014008 | 56 | 202 | 3.0 | 8.0 | 0.00 | 0.00 | 0.00 | 73 | 1031.6 |
| 20260831013510 | 56 | 209 | 4.0 | 9.0 | 0.00 | 0.00 | 0.00 | 73 | 1031.5 |
| 20260831013026 | 55 | 206 | 2.0 | 9.0 | 0.00 | 0.00 | 0.00 | 75 | 1031.6 |
| 20260831012511 | 55 | 198 | 3.0 | 9.0 | 0.00 | 0.00 | 0.00 | 73 | 1031.7 |
| 20260831012011 | 55 | 175 | 3.0 | 9.0 | 0.00 | 0.00 | 0.00 | 75 | 1032.0 |
| 20260831011523 | 54 | 201 | 3.0 | 9.0 | 0.00 | 0.00 | 0.00 | 75 | 1032.0 |
| 20260831011007 | 54 | 131 | 4.0 | 8.0 | 0.00 | 0.00 | 0.00 | 75 | 1031.9 |
| 20260831010516 | 54 | 216 | 5.0 | 8.0 | 0.00 | 0.00 | 0.00 | 76 | 1031.9 |
| 20260831010038 | 54 | 189 | 4.0 | 8.0 | 0.00 | 0.00 | 0.00 | 76 | 1031.9 |
| 20260831005506 | 54 | 149 | 3.0 | 9.0 | 0.00 | 0.00 | 0.00 | 76 | 1032.0 |
| 20260831005019 | 53 | 194 | 6.0 | 8.0 | 0.00 | 0.00 | 0.00 | 77 | 1032.1 |
| 20260831004514 | 53 | 185 | 4.0 | 7.0 | 0.00 | 0.00 | 0.00 | 78 | 1032.1 |
| 20260831004020 | 53 | 223 | 2.0 | 8.0 | 0.00 | 0.00 | 0.00 | 76 | 1032.1 |
| 20260831003515 | 52 | 197 | 2.0 | 8.0 | 0.00 | 0.00 | 0.00 | 77 | 1032.1 |
| 20260831003012 | 52 | 189 | 4.0 | 8.0 | 0.00 | 0.00 | 0.00 | 77 | 1032.1 |
| 20260831002513 | 52 | 203 | 5.0 | 7.0 | 0.00 | 0.00 | 0.00 | 78 | 1032.1 |
| 20260831002011 | 52 | 220 | 2.0 | 8.0 | 0.00 | 0.00 | 0.00 | 78 | 1032.1 |
| 20260831001517 | 52 | 191 | 4.0 | 9.0 | 0.00 | 0.00 | 0.00 | 79 | 1032.3 |
| 20260831001013 | 52 | 197 | 4.0 | 9.0 | 0.00 | 0.00 | 0.00 | 79 | 1032.3 |
| 20260831000512 | 52 | 203 | 5.0 | 9.0 | 0.00 | 0.00 | 0.00 | 79 | 1032.4 |
| 20260831000024 | 51 | 185 | 4.0 | 7.0 | 0.00 | 0.00 | 0.00 | 80 | 1032.4 |
| 20260830235514 | 51 | 185 | 4.0 | 7.0 | 0.00 | 0.00 | 0.00 | 79 | 1032.2 |
| 20260830235007 | 51 | 206 | 3.0 | 7.0 | 0.00 | 0.00 | 0.00 | 80 | 1032.1 |
| 20260830234540 | 51 | 199 | 4.0 | 7.0 | 0.00 | 0.00 | 0.00 | 80 | 1032.1 |
| 20260830234011 | 51 | 171 | 4.0 | 7.0 | 0.00 | 0.00 | 0.00 | 80 | 1032.3 |
| 20260830233516 | 50 | 210 | 2.0 | 5.0 | 0.00 | 0.00 | 0.00 | 80 | 1032.3 |
| 20260830233030 | 50 | 234 | 1.0 | 5.0 | 0.00 | 0.00 | 0.00 | 80 | 1032.4 |
| 20260830232510 | 50 | 196 | 2.0 | 5.0 | 0.00 | 0.00 | 0.00 | 81 | 1032.1 |
| 20260830232023 | 50 | 226 | 2.0 | 4.0 | 0.00 | 0.00 | 0.00 | 81 | 1032.1 |
| 20260830231515 | 49 | 202 | 0.0 | 3.0 | 0.00 | 0.00 | 0.00 | 81 | 1032.1 |
| 20260830231008 | 49 | 175 | 0.0 | 3.0 | 0.00 | 0.00 | 0.00 | 81 | 1032.4 |
| 20260830230517 | 49 | 229 | 0.0 | 4.0 | 0.00 | 0.00 | 0.00 | 81 | 1032.5 |
| 20260830230020 | 49 | 224 | 2.0 | 4.0 | 0.00 | 0.00 | 0.00 | 81 | 1032.4 |
| 20260830225511 | 49 | 185 | 0.0 | 4.0 | 0.00 | 0.00 | 0.00 | 82 | 1032.3 |
| 20260830225014 | 48 | 191 | 1.0 | 5.0 | 0.00 | 0.00 | 0.00 | 81 | 1032.4 |
| 20260830224517 | 48 | 169 | 3.0 | 5.0 | 0.00 | 0.00 | 0.00 | 82 | 1032.6 |
| 20260830224016 | 48 | 200 | 1.0 | 4.0 | 0.00 | 0.00 | 0.00 | 82 | 1032.6 |
| 20260830223514 | 48 | 112 | 1.0 | 3.0 | 0.00 | 0.00 | 0.00 | 83 | 1032.6 |